Flag for U.S.A. Weather past 2 weeks in Sunnyvale, California, U.S.A.

Now
65 °F

Sunny.


Feels Like: 65 °F
Forecast: 55 / 71 °F
Wind: 16 mph from North

Location: Moffett Field

Current Time: Mar 27, 2015 at 3:38:43 PM

Latest Report: Mar 27, 2015 at 2:56 PM


Visibility: 10 mi

Pressure: 30.14 "Hg

Humidity: 70%

Dew point: 55 °F

Location of SunnyvaleLocation

Historic Weather in Sunnyvale — Graph

°F

Sunnyvale temperature yesterday

Maximum temperature yesterday: 82 °F (at 3:56 PM)
Minimum temperature yesterday: 52 °F (at 4:56 AM)
Average temperature yesterday: 66 °F

Past Weeks' High & Low Weather Summary

 TemperatureHumidityPressure
High82 °F (Mar 14, 2:56 PM)90% (Mar 23, 1:56 AM)30.33 "Hg (Mar 23, 1:56 AM)
Low48 °F (Mar 18, 4:56 AM)27% (Mar 19, 12:56 PM)29.97 "Hg (Mar 14, 6:56 PM)
Average62 °F65%30.13 "Hg
* Reported Mar 12 1:56 PM — Mar 27 1:56 PM, Sunnyvale, Weather by CustomWeather, © 2015

Note: Actual official high and low records may vary slightly from our data, if they occured in-between our weather recording intervals... More about our weather records

Advertising

Sunnyvale weather history for previous 24 hours

 ConditionsComfort  
Time TempWeatherWind HumidityBarometerVisibility
1:56 PM
Fri, Mar 27
65 °FSunny.10 mph70%30.15 "Hg10 mi
12:56 PM65 °FSunny.12 mph70%30.17 "Hg10 mi
11:56 AM63 °FSunny.9 mph70%30.18 "Hg10 mi
10:56 AM62 °FSunny.10 mph75%30.18 "Hg10 mi
9:56 AM62 °FScattered clouds.8 mph78%30.17 "Hg10 mi
8:56 AM58 °FScattered clouds.No wind87%30.16 "Hg10 mi
7:56 AM56 °FClear.3 mph90%30.14 "Hg10 mi
6:56 AM56 °FClear.3 mph87%30.12 "Hg10 mi
5:56 AM56 °FClear.3 mph87%30.11 "Hg10 mi
4:56 AM58 °FClear.No wind81%30.10 "Hg10 mi
3:56 AM59 °FClear.No wind81%30.10 "Hg10 mi
2:56 AM60 °FClear.No wind80%30.11 "Hg10 mi
1:56 AM62 °FClear.No wind80%30.12 "Hg10 mi
12:56 AM62 °FClear.No wind78%30.11 "Hg10 mi
11:56 PM
Thu, Mar 26
64 °FClear.No wind73%30.12 "Hg10 mi
10:56 PM63 °FClear.No wind78%30.12 "Hg10 mi
9:56 PM63 °FClear.3 mph81%30.10 "Hg10 mi
8:56 PM67 °FClear.7 mph73%30.09 "Hg10 mi
7:56 PM71 °FSunny.3 mph57%30.06 "Hg10 mi
6:56 PM74 °FSunny.8 mph48%30.05 "Hg10 mi
5:56 PM79 °FSunny.9 mph38%30.06 "Hg10 mi
4:56 PM79 °FSunny.8 mph42%30.06 "Hg10 mi
3:56 PM82 °FSunny.8 mph40%30.06 "Hg10 mi
Weather by CustomWeather, © 2015

See weather overviewHow to use our weather pages